Weather History for Roth, Germany

Change the Weather History Date:

Sunday, December 9, 2012

  Actual Average Record
Temperature  
Mean Temperature 21 °F -  
Max Temperature 32 °F - - ()
Min Temperature 10 °F - - ()
Degree Days  
Heating Degree Days 44    
Moisture  
Dew Point 21 °F    
Average Humidity 86    
Maximum Humidity 93    
Minimum Humidity 74    
Precipitation  
Precipitation 0.00 in - - ()
Sea Level Pressure  
Sea Level Pressure 30.02 in    
Wind  
Wind Speed 7 mph ()    
Max Wind Speed 15 mph    
Max Gust Speed 26 mph    
Visibility 2.8 miles    
Events Snow    
T = Trace of Precipitation, MM = Missing Value Source: Averaged Metar Reports

Daily Weather History Graph

Daily Weather History Graph

Search for Another Location

Airport:

Trip Planner

Search our weather history database for the weather conditions in past years. The results will help you decide how hot, cold, wet, or windy it might be!

Date:

Astronomy

Dec. 09, 2012 Rise Set
Actual Time 7:58 AM CET 4:17 PM CET
Civil Twilight 7:21 AM CET 4:54 PM CET
Nautical Twilight 6:40 AM CET 5:35 PM CET
Astronomical Twilight 6:02 AM CET 6:13 PM CET
Moon 2:53 AM CET (12/9) 1:29 PM CET (12/9)
Length of Visible Light 9h 33m
Length of Day
8h 18m
Waning Crescent, 21% of the Moon is Illuminated
Dec 9
Waning Crescent
Dec 13
New
Dec 20
First Quarter
Dec 28
Full
Jan 5
Last Quarter

Hourly Weather History & Observations

Time (CET) Temp. Windchill Dew Point Humidity Pressure Visibility Wind Dir Wind Speed Gust Speed Precip Events Conditions
12:20 AM 10.4 °F 4.0 °F 8.6 °F 92% 30.24 in 3.7 mi SSW 3.5 mph - N/A   Scattered Clouds
1:20 AM 15.8 °F 10.2 °F 12.2 °F 86% 30.24 in 3.7 mi SW 3.5 mph - N/A   Mostly Cloudy
2:20 AM 14.0 °F 8.2 °F 12.2 °F 93% 30.24 in 3.1 mi SW 3.5 mph - N/A   Scattered Clouds
3:20 AM 17.6 °F 9.3 °F 14.0 °F 86% 30.24 in 3.1 mi SW 5.8 mph - N/A   Mostly Cloudy
4:20 AM 17.6 °F 9.3 °F 14.0 °F 86% 30.24 in 3.7 mi WSW 5.8 mph - N/A   Mostly Cloudy
5:20 AM 19.4 °F 9.5 °F 15.8 °F 86% 30.21 in 5.0 mi West 8.1 mph - N/A   Mostly Cloudy
6:20 AM 19.4 °F 12.8 °F 17.6 °F 93% 30.21 in 4.3 mi WSW 4.6 mph - N/A   Overcast
7:20 AM 21.2 °F 14.9 °F 17.6 °F 86% 30.21 in 3.7 mi SSW 4.6 mph - N/A   Overcast
7:48 AM 19.4 °F 12.8 °F 15.8 °F 86% 30.18 in 4.3 mi SW 4.6 mph - N/A   Partly Cloudy
8:20 AM 19.4 °F 12.8 °F 15.8 °F 86% 30.18 in 4.3 mi SSW 4.6 mph - N/A   Scattered Clouds
8:37 AM 19.4 °F 12.8 °F 15.8 °F 86% 30.18 in 3.7 mi South 4.6 mph - N/A   Mostly Cloudy
9:20 AM 19.4 °F 12.8 °F 14.0 °F 80% 30.18 in 4.3 mi SW 4.6 mph - N/A   Mostly Cloudy
10:20 AM 19.4 °F 11.5 °F 14.0 °F 80% 30.15 in 5.0 mi SW 5.8 mph - N/A   Mostly Cloudy
11:20 AM 21.2 °F 12.6 °F 15.8 °F 80% 30.12 in 6.2 mi SW 6.9 mph - N/A   Overcast
12:20 PM 23.0 °F 12.4 °F 15.8 °F 74% 30.06 in 3.7 mi SW 10.4 mph - N/A Snow Light Snow
12:30 PM 23.0 °F 12.4 °F 17.6 °F 80% 30.06 in - SW 10.4 mph - N/A Snow Snow
12:43 PM 23.0 °F 12.4 °F 17.6 °F 80% 30.06 in 1.2 mi SW 10.4 mph - N/A Snow Snow
1:20 PM 24.8 °F 13.4 °F 19.4 °F 80% 30.04 in 1.7 mi SW 12.7 mph - N/A Snow Snow
2:20 PM 24.8 °F 14.6 °F 21.2 °F 86% 29.98 in 0.8 mi SW 10.4 mph - N/A Snow Snow
2:37 PM 24.8 °F 14.0 °F 23.0 °F 93% 29.95 in 0.6 mi SW 11.5 mph - N/A Snow Snow
3:20 PM 26.6 °F 16.2 °F 23.0 °F 86% 29.95 in 0.3 mi SW 11.5 mph - N/A Snow Heavy Snow
4:09 PM 26.6 °F 17.5 °F 24.8 °F 93% 29.92 in 0.6 mi WSW 9.2 mph - N/A Snow Snow
4:20 PM 26.6 °F 16.2 °F 24.8 °F 93% 29.92 in 0.6 mi WSW 11.5 mph - N/A Snow Snow
5:06 PM 28.4 °F 19.1 °F 24.8 °F 86% 29.92 in 1.1 mi WSW 10.4 mph - N/A Snow Snow
5:20 PM 28.4 °F 19.1 °F 24.8 °F 86% 29.89 in 0.9 mi WSW 10.4 mph - N/A Snow Snow
5:47 PM 28.4 °F 18.0 °F 26.6 °F 93% 29.89 in 1.1 mi WSW 12.7 mph 26.5 mph N/A Snow Snow
6:20 PM 28.4 °F 18.0 °F 26.6 °F 93% 29.89 in 1.9 mi WSW 12.7 mph - N/A Snow Light Snow
7:20 PM 30.2 °F 20.2 °F 26.6 °F 86% 29.86 in 1.9 mi WSW 12.7 mph - N/A Snow Light Snow
8:20 PM 30.2 °F 20.8 °F 26.6 °F 86% 29.83 in 1.9 mi WSW 11.5 mph - N/A Snow Light Snow
8:38 PM 30.2 °F 19.8 °F 26.6 °F 86% 29.83 in 3.1 mi WSW 13.8 mph - N/A Snow Light Snow
9:20 PM 32.0 °F 22.1 °F 28.4 °F 87% 29.83 in 4.3 mi WSW 13.8 mph - N/A Snow Light Snow
9:31 PM 32.0 °F 21.6 °F 28.4 °F 87% 29.83 in 1.6 mi WSW 15.0 mph - N/A Snow Snow
9:44 PM 32.0 °F 21.6 °F 28.4 °F 87% 29.83 in 2.2 mi WSW 15.0 mph - N/A Snow Snow
10:00 PM 32.0 °F 23.0 °F 28.4 °F 87% 29.83 in 2.5 mi WSW 11.5 mph - N/A Snow Light Snow
10:20 PM 32.0 °F 22.5 °F 28.4 °F 87% 29.80 in 3.1 mi WSW 12.7 mph - N/A Snow Light Snow
11:20 PM 32.0 °F 22.5 °F 28.4 °F 87% 29.80 in 3.7 mi WSW 12.7 mph - N/A Snow Light Snow